| time (UTC) | temp F | wind direction | speed MPH | gust MPH | rain 1hr in | rain 24hr in | rain mn in | humidity % | barometer mb |
| 20260509001539 | 48 | 234 | 0.0 | 2.0 | 0.00 | 0.01 | 0.00 | 93 | 1019.5 |
| 20260509000038 | 48 | 239 | 0.0 | 3.0 | 0.00 | 0.01 | 0.01 | 93 | 1019.5 |
| 20260508234537 | 49 | 223 | 2.0 | 6.0 | 0.00 | 0.01 | 0.01 | 93 | 1019.4 |
| 20260508233038 | 49 | 113 | 0.0 | 9.0 | 0.00 | 0.01 | 0.01 | 93 | 1019.3 |
| 20260508231536 | 49 | 130 | 2.0 | 10.0 | 0.00 | 0.01 | 0.01 | 93 | 1019.4 |
| 20260508230035 | 49 | 172 | 4.0 | 13.0 | 0.00 | 0.01 | 0.01 | 93 | 1019.1 |
| 20260508224547 | 48 | 166 | 7.0 | 12.0 | 0.00 | 0.01 | 0.01 | 93 | 1019.1 |
| 20260508223035 | 48 | 140 | 1.0 | 6.0 | 0.00 | 0.01 | 0.01 | 93 | 1019.3 |
| 20260508221534 | 48 | 25 | 1.0 | 6.0 | 0.00 | 0.01 | 0.01 | 93 | 1019.3 |
| 20260508220033 | 48 | 108 | 2.0 | 6.0 | 0.00 | 0.01 | 0.01 | 92 | 1019.4 |
| 20260508214537 | 49 | 115 | 2.0 | 10.0 | 0.00 | 0.01 | 0.01 | 92 | 1019.4 |
| 20260508213032 | 49 | 121 | 2.0 | 10.0 | 0.00 | 0.01 | 0.01 | 92 | 1019.2 |
| 20260508211532 | 50 | 146 | 5.0 | 11.0 | 0.00 | 0.01 | 0.01 | 91 | 1019.2 |
| 20260508210035 | 50 | 188 | 3.0 | 12.0 | 0.00 | 0.01 | 0.01 | 91 | 1019.2 |
| 20260508204536 | 50 | 136 | 5.0 | 11.0 | 0.00 | 0.01 | 0.01 | 90 | 1019.2 |
| 20260508203033 | 50 | 152 | 0.0 | 5.0 | 0.00 | 0.01 | 0.01 | 90 | 1019.1 |
| 20260508201526 | 51 | 122 | 2.0 | 6.0 | 0.00 | 0.01 | 0.01 | 88 | 1019.0 |
| 20260508200026 | 51 | 312 | 2.0 | 10.0 | 0.00 | 0.01 | 0.01 | 85 | 1018.9 |
| 20260508194524 | 51 | 160 | 3.0 | 14.0 | 0.00 | 0.01 | 0.01 | 82 | 1018.7 |
| 20260508193023 | 51 | 130 | 9.0 | 16.0 | 0.00 | 0.01 | 0.01 | 82 | 1018.4 |
| 20260508191521 | 52 | 150 | 8.0 | 17.0 | 0.00 | 0.01 | 0.01 | 81 | 1018.4 |
| 20260508190020 | 52 | 150 | 7.0 | 15.0 | 0.00 | 0.01 | 0.01 | 78 | 1018.2 |
| 20260508184522 | 52 | 142 | 8.0 | 14.0 | 0.00 | 0.01 | 0.01 | 78 | 1018.1 |
| 20260508183017 | 53 | 142 | 8.0 | 16.0 | 0.00 | 0.01 | 0.01 | 77 | 1017.9 |
| 20260508181516 | 53 | 131 | 7.0 | 15.0 | 0.00 | 0.01 | 0.01 | 77 | 1017.8 |
| 20260508180015 | 54 | 127 | 7.0 | 15.0 | 0.00 | 0.01 | 0.01 | 74 | 1017.8 |
| 20260508174514 | 54 | 152 | 9.0 | 15.0 | 0.00 | 0.01 | 0.01 | 72 | 1017.7 |
| 20260508173012 | 55 | 167 | 10.0 | 17.0 | 0.00 | 0.01 | 0.01 | 70 | 1017.6 |
| 20260508171510 | 55 | 114 | 11.0 | 16.0 | 0.00 | 0.01 | 0.01 | 69 | 1017.4 |
| 20260508170011 | 56 | 165 | 5.0 | 17.0 | 0.00 | 0.01 | 0.01 | 69 | 1017.3 |
| 20260508164510 | 56 | 194 | 6.0 | 12.0 | 0.00 | 0.01 | 0.01 | 69 | 1017.3 |
| 20260508163015 | 57 | 164 | 10.0 | 15.0 | 0.00 | 0.01 | 0.01 | 73 | 1017.3 |
| 20260508161508 | 57 | 117 | 6.0 | 13.0 | 0.00 | 0.01 | 0.01 | 73 | 1017.3 |
| 20260508160007 | 57 | 126 | 10.0 | 17.0 | 0.00 | 0.01 | 0.01 | 74 | 1017.3 |
| 20260508154508 | 58 | 132 | 6.0 | 14.0 | 0.00 | 0.01 | 0.01 | 74 | 1017.3 |
| 20260508153016 | 59 | 142 | 9.0 | 15.0 | 0.00 | 0.01 | 0.01 | 74 | 1017.2 |
| 20260508151506 | 59 | 123 | 8.0 | 16.0 | 0.00 | 0.01 | 0.01 | 76 | 1017.2 |
| 20260508150006 | 58 | 110 | 8.0 | 12.0 | 0.00 | 0.01 | 0.01 | 77 | 1017.2 |
| 20260508144508 | 59 | 134 | 6.0 | 14.0 | 0.00 | 0.01 | 0.01 | 77 | 1017.2 |
| 20260508143005 | 59 | 151 | 8.0 | 15.0 | 0.01 | 0.01 | 0.01 | 77 | 1017.1 |
| 20260508141506 | 61 | 113 | 6.0 | 12.0 | 0.01 | 0.01 | 0.01 | 75 | 1017.2 |
| 20260508140006 | 63 | 189 | 6.0 | 10.0 | 0.01 | 0.01 | 0.01 | 66 | 1017.2 |
| 20260508134502 | 63 | 193 | 3.0 | 12.0 | 0.01 | 0.01 | 0.01 | 63 | 1017.2 |
| 20260508133105 | 63 | 223 | 6.0 | 11.0 | 0.00 | 0.00 | 0.00 | 67 | 1017.2 |
| 20260508131603 | 63 | 209 | 6.0 | 9.0 | 0.00 | 0.00 | 0.00 | 65 | 1017.2 |
| 20260508130058 | 62 | 144 | 6.0 | 10.0 | 0.00 | 0.00 | 0.00 | 66 | 1017.3 |
| 20260508124556 | 62 | 209 | 7.0 | 13.0 | 0.00 | 0.00 | 0.00 | 70 | 1017.3 |
| 20260508123053 | 61 | 165 | 7.0 | 11.0 | 0.00 | 0.00 | 0.00 | 74 | 1017.3 |
| 20260508121549 | 59 | 142 | 5.0 | 12.0 | 0.00 | 0.00 | 0.00 | 77 | 1017.4 |
| 20260508120053 | 58 | 163 | 10.0 | 18.0 | 0.00 | 0.00 | 0.00 | 76 | 1017.4 |
| 20260508114551 | 58 | 156 | 9.0 | 14.0 | 0.00 | 0.00 | 0.00 | 78 | 1017.4 |
| 20260508113045 | 58 | 159 | 6.0 | 13.0 | 0.00 | 0.00 | 0.00 | 78 | 1017.4 |
| 20260508111545 | 57 | 121 | 8.0 | 13.0 | 0.00 | 0.00 | 0.00 | 79 | 1017.4 |
| 20260508110045 | 58 | 178 | 9.0 | 14.0 | 0.00 | 0.00 | 0.00 | 79 | 1017.3 |
| 20260508104542 | 58 | 150 | 5.0 | 10.0 | 0.00 | 0.00 | 0.00 | 80 | 1017.3 |
| 20260508103047 | 58 | 102 | 5.0 | 14.0 | 0.00 | 0.00 | 0.00 | 78 | 1017.3 |
| 20260508101539 | 58 | 183 | 6.0 | 10.0 | 0.00 | 0.00 | 0.00 | 81 | 1017.3 |
| 20260508100048 | 56 | 140 | 4.0 | 10.0 | 0.00 | 0.00 | 0.00 | 83 | 1017.4 |
| 20260508094531 | 54 | 180 | 4.0 | 10.0 | 0.00 | 0.00 | 0.00 | 85 | 1017.3 |
| 20260508093034 | 53 | 149 | 1.0 | 11.0 | 0.00 | 0.00 | 0.00 | 88 | 1017.3 |
| 20260508091523 | 52 | 198 | 2.0 | 5.0 | 0.00 | 0.00 | 0.00 | 88 | 1017.4 |
| 20260508090012 | 51 | 148 | 0.0 | 4.0 | 0.00 | 0.00 | 0.00 | 89 | 1017.4 |
| 20260508084508 | 51 | 152 | 1.0 | 5.0 | 0.00 | 0.00 | 0.00 | 89 | 1017.4 |
| 20260508083005 | 51 | 252 | 4.0 | 8.0 | 0.00 | 0.00 | 0.00 | 88 | 1017.4 |
| 20260508081502 | 50 | 167 | 5.0 | 14.0 | 0.00 | 0.00 | 0.00 | 89 | 1017.0 |
| 20260508080101 | 50 | 73 | 1.0 | 6.0 | 0.00 | 0.00 | 0.00 | 90 | 1016.9 |
| 20260508074602 | 50 | 63 | 1.0 | 8.0 | 0.00 | 0.00 | 0.00 | 90 | 1016.8 |
| 20260508073054 | 49 | 72 | 2.0 | 8.0 | 0.00 | 0.00 | 0.00 | 90 | 1016.8 |
| 20260508071549 | 49 | 176 | 5.0 | 13.0 | 0.00 | 0.00 | 0.00 | 91 | 1016.6 |
| 20260508070045 | 48 | 166 | 8.0 | 14.0 | 0.00 | 0.00 | 0.00 | 91 | 1016.4 |
| 20260508064542 | 48 | 162 | 8.0 | 13.0 | 0.00 | 0.00 | 0.00 | 92 | 1016.3 |
| 20260508063042 | 47 | 121 | 9.0 | 12.0 | 0.00 | 0.00 | 0.00 | 92 | 1016.3 |
| 20260508061543 | 47 | 174 | 9.0 | 14.0 | 0.00 | 0.00 | 0.00 | 92 | 1016.2 |
| 20260508060054 | 47 | 152 | 7.0 | 14.0 | 0.00 | 0.00 | 0.00 | 92 | 1016.1 |
| 20260508054611 | 47 | 173 | 9.0 | 15.0 | 0.00 | 0.00 | 0.00 | 91 | 1016.0 |
| 20260508053048 | 47 | 177 | 6.0 | 12.0 | 0.00 | 0.00 | 0.00 | 91 | 1015.9 |
| 20260508051535 | 47 | 136 | 8.0 | 14.0 | 0.00 | 0.00 | 0.00 | 91 | 1015.9 |
| 20260508050037 | 47 | 147 | 8.0 | 13.0 | 0.00 | 0.00 | 0.00 | 90 | 1015.8 |
| 20260508044534 | 47 | 180 | 5.0 | 8.0 | 0.00 | 0.00 | 0.00 | 90 | 1015.7 |
| 20260508043036 | 47 | 154 | 4.0 | 11.0 | 0.00 | 0.00 | 0.00 | 90 | 1015.6 |
| 20260508041532 | 47 | 158 | 5.0 | 10.0 | 0.00 | 0.00 | 0.00 | 90 | 1015.7 |
| 20260508040033 | 47 | 165 | 6.0 | 12.0 | 0.00 | 0.00 | 0.00 | 90 | 1015.5 |
| 20260508034537 | 47 | 158 | 5.0 | 15.0 | 0.00 | 0.00 | 0.00 | 89 | 1015.4 |
| 20260508033034 | 47 | 182 | 5.0 | 15.0 | 0.00 | 0.00 | 0.00 | 89 | 1015.5 |
| 20260508031534 | 48 | 158 | 4.0 | 11.0 | 0.00 | 0.00 | 0.00 | 88 | 1015.6 |
| 20260508030029 | 48 | 152 | 5.0 | 13.0 | 0.00 | 0.00 | 0.00 | 87 | 1015.6 |
| 20260508024528 | 48 | 169 | 5.0 | 15.0 | 0.00 | 0.00 | 0.00 | 86 | 1015.6 |
| 20260508023027 | 48 | 187 | 10.0 | 19.0 | 0.00 | 0.00 | 0.00 | 86 | 1015.5 |
| 20260508021527 | 48 | 158 | 11.0 | 18.0 | 0.00 | 0.00 | 0.00 | 86 | 1015.4 |
| 20260508020024 | 48 | 140 | 12.0 | 17.0 | 0.00 | 0.00 | 0.00 | 87 | 1015.4 |
| 20260508014527 | 48 | 165 | 9.0 | 19.0 | 0.00 | 0.00 | 0.00 | 87 | 1015.4 |
| 20260508013017 | 48 | 161 | 11.0 | 16.0 | 0.00 | 0.00 | 0.00 | 88 | 1015.4 |
| 20260508011517 | 47 | 149 | 10.0 | 16.0 | 0.00 | 0.00 | 0.00 | 89 | 1015.4 |
| 20260508010026 | 47 | 129 | 11.0 | 18.0 | 0.00 | 0.00 | 0.00 | 89 | 1015.5 |
| 20260508004523 | 47 | 129 | 11.0 | 17.0 | 0.00 | 0.00 | 0.00 | 90 | 1015.6 |
| 20260508003012 | 47 | 169 | 10.0 | 18.0 | 0.00 | 0.00 | 0.00 | 90 | 1015.6 |